RH
22 22 22 20 18 17 16 15 13 11 10 8 7 6 5 5 5 6 5 6 6 6 7 7 6 6 6 6 6 6 5 5 5 5 4 4 4 4 4 4 4 4
34 38 37 33 30 29 29 28 27 24 21 18 15 12 11 9 8 8 8 7 8 8 8 8 7 7 7 7 7 7 7 7 6 6 6 5 5 5 5 5 4 4
45 49 47 41 37 36 36 36 36 34 31 28 25 22 18 15 12 11 11 10 10 10 10 10 9 9 8 8 8 8 7 7 7 7 7 6 6 6 6 6 6 6
57 55 50 44 39 40 43 43 41 39 38 36 33 31 27 23 20 16 14 13 12 12 11 11 11 11 11 10 9 9 9 9 9 9 9 9 8 8 8 8 7 8
69 63 56 51 49 51 51 48 45 42 42 42 39 38 35 32 29 24 21 18 16 15 14 13 13 12 12 12 11 11 10 10 10 10 11 11 11 10 10 10 10 10
80 74 65 60 59 62 61 56 50 46 45 45 43 42 40 39 37 35 31 27 23 21 18 16 15 14 13 13 13 13 13 13 13 13 13 12 13 13 12 13 13 13
82 78 71 64 60 61 65 64 57 51 47 46 45 45 42 41 41 40 38 37 34 31 28 25 22 20 17 15 14 14 14 15 15 15 15 16 16 16 16 16 15 15
77 74 71 68 62 62 67 69 65 59 53 48 48 47 45 42 43 44 42 38 35 33 33 33 33 31 28 25 21 19 17 16 17 16 17 17 17 17 17 18 18 17
85 78 72 69 66 65 65 66 66 64 60 58 56 52 48 44 41 42 40 36 34 33 31 30 32 35 36 35 32 29 26 24 23 23 23 22 22 21 20 20 20 19
91 87 80 77 75 72 68 68 68 68 70 74 70 63 57 50 44 39 37 34 34 34 34 32 31 33 37 39 38 36 35 33 32 31 30 28 26 25 24 24 23 22
86 83 76 77 80 78 78 78 73 69 72 75 73 67 60 56 52 45 40 37 37 39 43 44 40 37 37 40 40 40 39 40 39 36 34 33 32 30 28 27 26 25
80 75 71 77 79 79 87 91 83 73 70 67 62 58 54 57 61 58 52 50 50 51 52 51 50 47 43 41 39 39 39 39 39 37 33 29 27 28 29 28 28 28
81 81 86 91 88 83 90 96 89 78 72 69 63 54 51 57 64 63 61 60 60 61 63 66 67 63 55 46 40 38 38 37 37 32 25 21 18 16 17 17 18 20
85 90 94 95 90 87 90 93 86 75 70 70 65 56 52 58 63 64 63 58 50 51 59 64 66 67 68 60 53 53 56 60 62 49 30 22 19 17 18 19 17 16
79 83 83 81 77 76 79 81 78 71 66 64 60 54 53 54 55 56 58 53 45 43 48 49 53 69 85 84 78 81 84 86 91 83 58 35 27 32 41 43 39 36
65 61 60 59 54 51 51 53 54 53 53 52 50 49 50 50 46 44 43 41 39 44 50 52 53 64 81 89 89 94 98 97 100 102 92 75 67 71 77 74 69 66
43 39 38 39 37 35 34 34 33 32 34 38 41 43 44 45 47 48 45 39 33 34 39 43 42 41 49 62 70 76 83 84 82 83 82 78 79 82 85 85 82 77
36 32 28 27 27 27 27 27 27 28 28 33 41 49 49 45 43 45 45 43 37 30 28 29 29 27 26 31 38 42 46 48 48 49 48 47 49 51 54 57 57 52
53 45 35 29 26 25 25 26 27 28 29 30 38 50 58 58 55 49 44 42 38 31 27 24 23 22 21 20 21 23 24 25 26 28 28 28 28 29 31 32 32 31
48 44 38 33 30 29 28 27 26 26 26 25 26 30 37 44 51 53 51 47 41 32 25 22 20 20 20 19 18 17 17 17 18 18 18 19 19 20 21 21 21 23
34 34 34 33 32 31 30 29 30 29 28 27 25 22 22 23 27 31 34 33 30 25 21 20 20 19 18 17 16 16 16 15 15 15 15 15 15 14 15 16 16 16
33 33 34 34 33 32 32 30 30 31 31 30 28 26 24 21 20 20 21 20 20 19 18 17 16 16 16 16 15 14 14 14 14 14 14 14 14 15 13 12 13 14
34 33 33 33 33 33 32 31 30 30 31 30 28 27 25 24 23 21 21 21 20 18 17 17 17 16 16 16 16 16 16 16 17 17 17 16 15 15 14 16 23 28
37 36 35 34 34 33 33 33 32 31 31 30 30 29 27 26 25 24 24 23 22 22 20 20 20 19 19 19 19 19 19 19 19 18 18 17 17 20 25 30 34 33
43 41 39 38 37 37 36 35 34 33 32 31 30 29 28 28 27 27 26 25 24 23 23 22 22 21 20 20 20 21 20 20 20 18 18 17 16 22 29 27 20 18
47 46 44 43 41 39 39 38 37 36 35 33 33 31 30 29 28 28 28 27 27 26 24 23 22 20 20 21 21 21 20 19 18 17 16 15 13 15 17 15 17 26
Wind_Speed
20 20 20 20 20 20 19 19 19 19 18 18 18 17 17 17 17 17 17 17 17 17 18 18 18 19 19 19 19 19 19 18 19 20 20 21 20 20 21 21 21 21
22 21 21 20 20 20 20 19 19 19 19 19 19 18 18 17 16 16 16 16 17 17 17 17 17 17 18 18 18 19 19 19 19 19 20 20 21 20 20 21 21 21
23 23 22 21 20 20 19 19 18 17 18 18 19 19 19 18 17 16 16 16 16 16 16 16 16 16 17 17 18 18 18 18 18 19 19 20 20 20 20 20 20 20
23 23 22 21 20 19 18 18 17 17 17 17 18 19 19 19 19 18 17 17 16 16 16 16 16 16 16 17 18 18 18 18 18 18 18 18 19 20 20 20 20 20
24 22 21 20 19 18 18 18 18 17 17 17 18 18 19 19 20 20 19 19 18 18 17 17 17 17 17 17 18 19 19 19 19 19 19 19 19 20 20 20 21 21
25 23 22 21 19 18 18 19 19 19 18 18 18 18 19 19 20 20 20 21 21 21 20 19 19 18 18 18 19 20 20 20 21 21 21 21 21 21 21 22 22 22
25 25 24 24 23 21 21 21 21 21 21 20 19 19 20 19 19 19 19 20 20 20 21 21 21 21 20 20 20 21 21 22 22 22 22 23 22 23 23 23 24 24
26 26 26 26 26 25 24 24 24 24 23 23 22 22 21 20 20 20 19 19 19 19 19 19 20 21 21 22 22 22 22 23 23 24 24 24 24 25 25 25 25 25
29 29 29 28 28 28 28 28 27 27 26 26 25 24 23 23 22 22 21 20 19 18 18 18 19 19 20 21 22 22 23 23 24 24 25 26 26 27 27 27 28 28
31 31 31 31 31 31 31 31 31 30 28 27 26 26 25 25 25 25 24 23 21 20 20 20 20 20 20 20 21 21 21 22 23 24 25 26 27 28 28 29 29 30
33 33 34 34 34 33 33 33 33 33 31 30 30 29 29 29 29 28 28 27 25 24 24 24 23 23 22 22 23 23 23 24 25 26 26 27 28 28 29 29 30 31
36 36 36 36 36 35 35 35 35 35 34 34 33 33 32 32 33 33 33 31 30 29 28 27 26 26 26 26 26 26 26 27 28 29 29 29 29 29 30 31 31 32
38 38 37 37 37 37 37 37 37 37 37 37 36 35 34 34 36 37 37 36 35 33 32 31 28 27 28 29 30 30 31 31 32 33 34 34 33 32 32 33 33 34
39 39 39 39 39 38 39 39 39 38 38 39 39 37 36 35 37 38 39 39 39 37 37 35 32 30 31 33 34 36 37 37 37 37 38 38 37 37 36 36 36 37
42 42 42 42 42 41 42 41 41 40 40 41 41 40 40 39 38 39 40 41 41 41 40 39 38 37 37 37 37 38 38 38 37 38 39 40 40 40 39 38 38 39
47 47 47 47 47 46 46 45 45 44 44 44 44 44 44 43 42 41 42 43 43 43 42 42 42 43 43 41 40 39 37 34 34 35 36 38 39 39 39 39 39 39
51 51 51 50 50 50 50 50 49 49 48 48 47 48 48 47 46 45 44 45 46 46 46 46 47 47 47 45 44 44 42 41 40 40 40 40 40 40 40 40 40 41
53 53 53 53 53 52 52 52 52 51 51 50 50 50 51 51 50 50 49 48 48 49 49 50 50 51 51 50 49 49 49 50 50 49 48 47 47 46 46 46 45 46
54 54 54 54 53 53 53 53 53 52 52 52 52 52 52 52 53 53 53 52 52 52 52 52 53 53 54 53 53 53 53 54 54 54 53 52 51 51 51 50 50 50
57 57 56 56 55 55 55 54 54 54 54 54 55 55 54 54 55 56 56 56 56 56 56 56 55 56 56 56 56 56 56 56 57 56 55 54 53 52 52 52 51 51
59 59 59 58 58 58 57 57 56 56 56 56 56 57 57 57 58 58 59 59 59 60 59 59 58 59 59 59 59 59 58 58 57 57 56 55 54 53 53 52 52 51
58 58 58 58 58 58 58 57 57 57 57 57 57 57 57 57 58 59 60 60 61 61 60 60 60 60 59 59 59 59 58 58 57 57 56 56 55 54 53 53 52 52
56 56 56 56 56 56 56 56 56 56 57 57 57 57 57 57 57 58 58 59 59 59 59 59 59 59 58 58 58 57 57 57 57 57 56 56 55 55 53 52 51 51
54 54 54 54 54 54 55 55 55 56 56 56 56 57 57 57 57 57 57 58 58 58 57 58 58 58 57 57 57 57 56 56 57 56 56 55 55 54 52 51 51 51
52 52 52 52 53 53 53 54 54 55 55 56 56 56 57 57 57 57 57 58 58 58 58 58 58 58 57 57 57 56 56 56 55 55 55 54 55 54 53 52 53 53
52 52 52 52 52 53 53 53 54 54 55 55 55 56 57 57 57 57 58 58 58 58 59 59 58 57 57 56 56 56 55 55 55 54 54 54 54 54 54 54 54 53
Wind_Direction
264 263 263 263 263 263 263 263 264 266 267 267 268 266 265 266 267 268 269 268 266 263 260 256 253 253 255 256 258 258 258 256 255 255 256 256 255 253 251 251 250 249
268 266 264 262 262 261 261 262 263 264 266 267 268 268 268 267 268 270 272 272 271 269 265 261 257 254 253 253 254 255 254 253 252 252 253 255 257 256 254 254 253 252
269 267 266 264 262 261 260 261 261 262 264 266 267 268 268 268 267 268 270 271 272 272 270 267 264 261 258 255 254 253 253 253 251 250 249 251 253 256 256 256 256 256
270 268 267 265 262 260 260 260 260 261 263 265 267 269 269 269 267 266 266 266 267 268 269 268 267 265 263 261 257 255 253 252 252 251 250 250 250 253 255 255 256 257
270 269 266 262 258 257 258 258 258 259 262 265 268 270 272 272 271 269 267 264 263 262 263 264 264 264 263 263 261 259 257 255 253 253 252 253 253 254 255 257 258 259
267 267 264 258 255 256 258 259 258 258 261 265 268 271 273 274 274 274 272 269 266 263 261 260 260 260 259 259 259 259 259 258 257 256 256 256 257 257 258 260 261 262
264 263 261 259 258 258 257 257 259 261 262 265 267 269 270 272 272 272 271 271 270 267 265 263 261 260 259 257 257 256 257 257 257 257 258 257 257 258 259 260 260 262
263 263 261 260 261 262 260 258 258 261 264 266 267 266 266 266 266 266 266 268 270 270 269 268 266 265 263 260 258 256 255 255 255 255 256 256 256 256 257 257 258 259
262 261 261 261 261 262 263 262 260 260 263 266 266 266 265 263 262 263 264 263 265 268 271 271 271 271 269 267 264 261 257 255 254 254 254 254 254 254 255 255 256 257
260 259 259 260 261 262 263 264 263 261 261 263 264 266 266 264 261 260 259 258 259 262 265 268 270 270 269 268 266 263 261 258 256 255 254 254 254 254 255 255 256 257
260 258 260 260 260 261 263 264 265 264 263 261 262 264 266 264 262 258 255 254 254 257 261 265 267 266 265 266 265 263 262 261 260 258 257 257 257 256 257 257 258 259
260 259 260 260 260 261 261 262 263 264 264 264 263 262 262 262 262 260 258 255 255 256 259 261 263 263 262 263 263 262 262 261 261 261 261 262 262 262 261 261 260 261
259 259 259 259 260 261 261 261 261 262 262 264 264 262 260 259 258 259 260 259 258 257 257 257 259 260 259 259 259 260 261 262 263 264 264 265 265 265 265 266 265 264
256 256 257 257 259 260 260 261 261 260 259 261 262 262 261 258 256 256 259 261 262 261 259 258 258 258 258 257 256 258 261 263 264 264 263 263 263 264 266 267 268 268
254 255 256 257 259 260 260 260 260 259 259 259 259 260 260 259 256 256 258 260 262 263 263 261 259 261 263 261 258 260 262 264 264 262 261 261 263 265 267 268 268 270
255 256 258 259 260 261 262 262 261 260 261 261 260 259 259 258 258 258 258 259 260 263 264 262 260 263 266 265 263 264 265 265 264 262 262 263 264 266 267 268 270 272
256 257 258 259 260 261 262 263 263 262 262 262 261 261 260 259 259 259 260 260 260 262 264 265 264 265 267 267 267 267 267 268 269 269 269 270 270 270 270 271 273 275
257 257 258 259 259 260 261 262 262 262 262 262 262 261 261 260 260 260 261 261 261 262 264 266 267 269 270 270 270 271 271 272 273 273 274 274 274 274 273 273 274 275
258 259 259 260 260 260 261 261 261 261 261 261 261 261 261 261 260 261 261 262 263 264 266 267 268 270 272 273 274 274 274 275 275 276 276 276 276 276 275 274 274 273
259 260 260 261 262 262 262 261 261 261 260 261 261 261 261 261 261 261 261 263 264 266 267 268 269 269 271 272 273 273 274 275 277 278 278 278 277 276 275 275 274 272
261 261 261 261 262 262 262 262 262 262 262 262 262 262 261 261 261 262 262 262 264 265 266 267 268 269 269 270 271 272 273 274 275 276 276 276 276 275 274 274 273 272
262 262 262 262 262 262 262 262 262 263 263 263 263 263 263 262 262 262 263 263 264 264 265 265 266 267 268 268 269 271 272 273 274 274 274 274 274 274 274 273 273 272
262 262 262 262 262 262 262 262 263 263 263 263 263 263 263 263 263 263 263 264 264 265 265 266 266 266 267 268 269 270 271 272 272 273 273 274 274 274 274 273 272 271
263 263 263 263 263 262 262 262 262 262 262 262 263 263 263 263 263 263 263 264 264 265 265 266 266 267 267 268 269 270 271 271 271 271 272 272 272 272 272 271 270 269
264 263 263 263 263 263 262 262 262 262 261 261 261 262 262 262 263 263 264 264 265 265 266 266 267 267 268 269 269 270 270 270 270 270 270 270 270 270 270 270 270 270
264 264 263 263 263 263 263 262 262 262 262 262 262 262 261 262 262 262 263 264 264 265 266 267 268 268 269 269 270 270 271 271 270 270 270 271 271 271 271 271 271 270